• In Latvia
  • List of Countries
  • For 7 days
  • Water Temperature
  • Satellite Maps
  • Weather Map
  • Weather Widgets
  • user-avatar
    Login

    Hourly Weather Jewłach

    Today, 18 August, Friday

    Time Temperature Precipitation Wind Pressure Humidity
    00:00 +28°C° 0 mm 2 mps 758 mmHg 41%
    01:00 +28°C° 0 mm 2 mps 758 mmHg 42%
    02:00 +27°C° 0 mm 2 mps 758 mmHg 43%
    03:00 +27°C° 0 mm 1 mps 758 mmHg 42%
    04:00 +27°C° 0 mm 1 mps 758 mmHg 42%
    05:00 +27°C° 0 mm 1 mps 758 mmHg 41%
    06:00 +27°C° 0 mm 2 mps 758 mmHg 41%
    07:00 +29°C° 0 mm 2 mps 758 mmHg 37%
    08:00 +31°C° 0 mm 2 mps 758 mmHg 32%
    09:00 +34°C° 0 mm 2 mps 758 mmHg 28%
    10:00 +35°C° 0 mm 2 mps 758 mmHg 26%
    11:00 +36°C° 0 mm 2 mps 758 mmHg 25%
    12:00 +36°C° 0 mm 1 mps 758 mmHg 23%
    13:00 +37°C° 0 mm 1 mps 757 mmHg 23%
    14:00 +38°C° 0 mm 2 mps 757 mmHg 22%
    15:00 +39°C° 0 mm 2 mps 757 mmHg 22%
    16:00 +39°C° 0 mm 2 mps 757 mmHg 23%
    17:00 +38°C° 0 mm 3 mps 757 mmHg 23%
    18:00 +38°C° 0 mm 3 mps 758 mmHg 24%
    19:00 +36°C° 0 mm 4 mps 758 mmHg 27%
    20:00 +34°C° 0 mm 4 mps 759 mmHg 29%
    21:00 +33°C° 0 mm 5 mps 759 mmHg 31%
    22:00 +32°C° 0 mm 4 mps 759 mmHg 32%
    23:00 +30°C° 0 mm 4 mps 760 mmHg 34%

    Tomorrow, 19 August, Saturday

    Time Temperature Precipitation Wind Pressure Humidity
    00:00 +29°C° 0 mm 3 mps 760 mmHg 35%
    01:00 +28°C° 0 mm 3 mps 760 mmHg 37%
    02:00 +28°C° 0 mm 3 mps 760 mmHg 39%
    03:00 +27°C° 0 mm 2 mps 760 mmHg 40%
    04:00 +27°C° 0 mm 2 mps 760 mmHg 41%
    05:00 +27°C° 0 mm 2 mps 760 mmHg 41%
    06:00 +27°C° 0 mm 1 mps 761 mmHg 42%
    07:00 +29°C° 0 mm 1 mps 761 mmHg 36%
    08:00 +32°C° 0 mm 1 mps 761 mmHg 30%
    09:00 +34°C° 0 mm 1 mps 760 mmHg 24%
    10:00 +36°C° 0 mm 2 mps 760 mmHg 21%
    11:00 +37°C° 0 mm 3 mps 760 mmHg 19%
    12:00 +39°C° 0 mm 3 mps 760 mmHg 16%
    13:00 +40°C° 0 mm 4 mps 759 mmHg 15%
    14:00 +41°C° 0 mm 5 mps 759 mmHg 15%
    15:00 +42°C° 0 mm 5 mps 759 mmHg 14%
    16:00 +41°C° 0 mm 6 mps 759 mmHg 15%
    17:00 +40°C° 0 mm 6 mps 759 mmHg 16%
    18:00 +39°C° 0 mm 6 mps 759 mmHg 16%
    19:00 +36°C° 0 mm 6 mps 760 mmHg 18%
    20:00 +34°C° 0 mm 5 mps 761 mmHg 20%
    21:00 +32°C° 0 mm 5 mps 761 mmHg 21%
    22:00 +30°C° 0 mm 4 mps 761 mmHg 24%
    23:00 +29°C° 0 mm 3 mps 761 mmHg 26%

    Day after tomorrow, 20 August, Sunday

    Time Temperature Precipitation Wind Pressure Humidity
    00:00 +28°C° 0 mm 2 mps 761 mmHg 28%
    01:00 +28°C° 0 mm 2 mps 761 mmHg 29%
    02:00 +27°C° 0 mm 2 mps 761 mmHg 29%
    03:00 +27°C° 0 mm 2 mps 761 mmHg 29%
    04:00 +27°C° 0 mm 1 mps 761 mmHg 29%
    05:00 +27°C° 0 mm 1 mps 761 mmHg 29%
    06:00 +27°C° 0 mm 1 mps 761 mmHg 28%
    07:00 +29°C° 0 mm 1 mps 761 mmHg 25%
    08:00 +32°C° 0 mm 1 mps 761 mmHg 22%
    09:00 +34°C° 0 mm 1 mps 761 mmHg 18%
    10:00 +36°C° 0 mm 2 mps 760 mmHg 17%
    11:00 +38°C° 0 mm 3 mps 760 mmHg 15%
    12:00 +40°C° 0 mm 4 mps 759 mmHg 14%
    13:00 +41°C° 0 mm 4 mps 759 mmHg 13%
    14:00 +41°C° 0 mm 5 mps 759 mmHg 13%
    15:00 +42°C° 0 mm 5 mps 758 mmHg 13%
    16:00 +41°C° 0 mm 5 mps 758 mmHg 15%
    17:00 +40°C° 0 mm 5 mps 759 mmHg 17%
    18:00 +39°C° 0 mm 5 mps 759 mmHg 18%
    19:00 +36°C° 0 mm 5 mps 759 mmHg 22%
    20:00 +34°C° 0 mm 4 mps 760 mmHg 25%
    21:00 +32°C° 0 mm 4 mps 760 mmHg 29%
    22:00 +30°C° 0 mm 3 mps 760 mmHg 30%
    23:00 +29°C° 0 mm 3 mps 760 mmHg 32%

    21 August, Monday

    Time Temperature Precipitation Wind Pressure Humidity
    00:00 +28°C° 0 mm 2 mps 760 mmHg 33%
    01:00 +28°C° 0 mm 2 mps 760 mmHg 33%
    02:00 +27°C° 0 mm 1 mps 760 mmHg 33%
    03:00 +27°C° 0 mm 1 mps 760 mmHg 33%
    04:00 +27°C° 0 mm 1 mps 760 mmHg 32%
    05:00 +27°C° 0 mm 2 mps 760 mmHg 31%
    06:00 +27°C° 0 mm 2 mps 760 mmHg 30%
    07:00 +30°C° 0 mm 2 mps 759 mmHg 26%
    08:00 +32°C° 0 mm 2 mps 759 mmHg 22%
    09:00 +35°C° 0 mm 2 mps 759 mmHg 19%
    10:00 +36°C° 0 mm 2 mps 758 mmHg 17%
    11:00 +38°C° 0 mm 2 mps 758 mmHg 16%
    12:00 +39°C° 0 mm 3 mps 758 mmHg 15%
    13:00 +40°C° 0 mm 3 mps 757 mmHg 15%
    14:00 +41°C° 0 mm 4 mps 757 mmHg 14%
    15:00 +42°C° 0 mm 4 mps 756 mmHg 14%
    16:00 +41°C° 0 mm 4 mps 756 mmHg 15%
    17:00 +41°C° 0 mm 4 mps 757 mmHg 17%
    18:00 +40°C° 0 mm 4 mps 757 mmHg 19%
    19:00 +37°C° 0 mm 4 mps 757 mmHg 21%
    20:00 +35°C° 0 mm 4 mps 758 mmHg 23%
    21:00 +33°C° 0 mm 4 mps 759 mmHg 25%
    22:00 +32°C° 0 mm 4 mps 759 mmHg 27%
    23:00 +30°C° 0 mm 3 mps 759 mmHg 30%

    22 August, Tuesday

    Time Temperature Precipitation Wind Pressure Humidity
    00:00 +29°C° 0 mm 2 mps 759 mmHg 32%
    01:00 +28°C° 0 mm 2 mps 758 mmHg 33%
    02:00 +28°C° 0 mm 2 mps 758 mmHg 33%
    03:00 +27°C° 0 mm 1 mps 758 mmHg 34%
    04:00 +27°C° 0 mm 1 mps 758 mmHg 34%
    05:00 +27°C° 0 mm 1 mps 758 mmHg 34%
    06:00 +28°C° 0 mm 1 mps 758 mmHg 33%
    07:00 +30°C° 0 mm 1 mps 758 mmHg 29%
    08:00 +32°C° 0 mm 1 mps 758 mmHg 24%
    09:00 +35°C° 0 mm 2 mps 758 mmHg 19%
    10:00 +37°C° 0 mm 2 mps 757 mmHg 18%
    11:00 +38°C° 0 mm 3 mps 757 mmHg 16%
    12:00 +40°C° 0 mm 4 mps 756 mmHg 15%
    13:00 +41°C° 0 mm 4 mps 756 mmHg 15%
    14:00 +42°C° 0 mm 4 mps 755 mmHg 14%
    15:00 +42°C° 0 mm 5 mps 755 mmHg 14%
    16:00 +41°C° 0 mm 5 mps 755 mmHg 16%
    17:00 +40°C° 0 mm 5 mps 755 mmHg 17%
    18:00 +39°C° 0 mm 5 mps 755 mmHg 19%
    19:00 +36°C° 0 mm 4 mps 756 mmHg 21%
    20:00 +34°C° 0 mm 4 mps 756 mmHg 23%
    21:00 +32°C° 0 mm 4 mps 757 mmHg 25%
    22:00 +30°C° 0 mm 4 mps 757 mmHg 28%
    23:00 +29°C° 0 mm 3 mps 757 mmHg 30%

    23 August, Wednesday

    Time Temperature Precipitation Wind Pressure Humidity
    00:00 +28°C° 0 mm 2 mps 757 mmHg 33%
    01:00 +27°C° 0 mm 2 mps 757 mmHg 33%
    02:00 +27°C° 0 mm 1 mps 757 mmHg 34%
    03:00 +26°C° 0 mm 1 mps 757 mmHg 35%
    04:00 +27°C° 0 mm 1 mps 757 mmHg 35%
    05:00 +27°C° 0 mm 1 mps 758 mmHg 35%
    06:00 +27°C° 0 mm 1 mps 758 mmHg 35%
    07:00 +29°C° 0 mm 1 mps 758 mmHg 30%
    08:00 +31°C° 0 mm 1 mps 758 mmHg 24%
    09:00 +34°C° 0 mm 2 mps 758 mmHg 19%
    10:00 +36°C° 0 mm 3 mps 758 mmHg 17%
    11:00 +38°C° 0 mm 3 mps 757 mmHg 15%
    12:00 +40°C° 0 mm 4 mps 757 mmHg 13%
    13:00 +41°C° 0 mm 4 mps 757 mmHg 13%
    14:00 +42°C° 0 mm 5 mps 757 mmHg 13%
    15:00 +42°C° 0 mm 5 mps 756 mmHg 13%
    16:00 +41°C° 0 mm 5 mps 757 mmHg 15%
    17:00 +40°C° 0 mm 6 mps 757 mmHg 17%
    18:00 +38°C° 0 mm 6 mps 757 mmHg 18%
    19:00 +35°C° 0 mm 5 mps 758 mmHg 21%
    20:00 +33°C° 0 mm 4 mps 759 mmHg 23%
    21:00 +30°C° 0 mm 4 mps 759 mmHg 26%
    22:00 +29°C° 0 mm 3 mps 759 mmHg 27%
    23:00 +28°C° 0 mm 2 mps 760 mmHg 29%
    Show more